Location: Coulournat
(45.5652°N, 1.9368°E)
Time: 13:33:42
(UTC+00:00)

Daily predictions for brighter satellites

Satellite Brightness Start Highest point End
(mag) Time Altitude Azimuth Time Altitude Azimuth Time Altitude Azimuth
Cosmos 1777 Rocket 4.2 19:48:06 10° SSW 19:53:17 80° WNW 19:58:32 10° NNE
deb Kosmos-1763 4.0 19:51:45 10° NNW 19:55:18 85° WSW 19:58:50 10° SSE
SJ-6B 3.4 19:52:11 10° S 19:56:07 62° W 20:00:09 10° NNW
Ariane Rocket 3.0 19:52:09 10° SSE 19:57:12 81° ENE 20:02:18 10° NNW
USA 308 3.8 19:55:22 10° WNW 19:59:25 42° SW 20:03:28 10° SSE
Cosmos 1943 Rocket 3.5 19:56:14 10° SE 20:00:06 19° E 20:03:57 10° NE
ATLAS 2AS CENTAUR R/B 3.2 19:53:30 10° NW 20:00:49 56° NE 20:07:32 10° ESE
Cosmos 2082 Rocket 2.3 19:56:15 10° NNW 20:01:52 67° ENE 20:07:27 10° SE
Cosmos 158 Rocket 4.0 19:57:43 10° NNW 20:02:35 61° ENE 20:07:29 10° SSE
Terra 4.0 20:02:15 10° ENE 20:03:39 11° NE 20:05:04 10° NE
USA 215 4.4 19:59:26 10° NE 20:05:37 47° NNW 20:11:48 10° W
Meteor 1-11 Rocket 4.4 20:02:42 10° N 20:08:20 42° ENE 20:13:49 10° SE
Resurs 1-3 3.7 20:06:23 10° S 20:10:46 81° WSW 20:15:10 10° NNW
Cosmos 1898 Rocket 4.3 20:08:25 10° SSE 20:13:03 32° E 20:17:43 10° NE
CZ-2C R/B 4.3 20:13:15 10° NNE 20:17:29 37° E 20:21:46 10° SSE
USA 245 4.0 20:18:58 13° ESE 20:20:09 17° ENE 20:21:55 10° NNE
Cosmos 923 Rocket 4.2 20:15:09 10° NNW 20:20:24 63° ENE 20:25:16 12° SSE
ARIANE 5 R/B 3.8 20:18:52 12° ESE 20:22:10 27° ENE 20:25:49 10° N
Cosmos 1271 Rocket 2.8 20:18:20 10° S 20:22:17 64° E 20:26:15 10° NNE
Cosmos 2278 Rocket 3.1 20:20:21 10° SW 20:25:53 55° WNW 20:31:28 10° NNE
Cosmos 1461 3.8 20:22:04 10° S 20:26:16 33° ESE 20:30:26 10° NE
Cosmos 2369 Rocket 3.7 20:26:36 13° SE 20:29:09 18° E 20:32:45 10° ENE
COSMOS 2406 4.3 20:24:30 10° NW 20:29:47 41° WSW 20:35:03 10° S
Meteor 1-10 Rocket 4.2 20:25:48 10° S 20:31:22 75° E 20:37:07 10° NNE
Cosmos 1666 2.7 20:27:49 10° N 20:31:34 82° W 20:35:16 10° S
Cosmos 1818 4.1 20:26:48 10° NNW 20:32:11 51° NE 20:36:36 15° ESE
Landsat 7 3.8 20:28:10 10° SSE 20:32:50 79° ENE 20:37:37 10° N
SL-24 R/B - RUBIN 2 4.0 20:29:03 10° NW 20:34:31 75° NE 20:38:18 17° SE
Cosmos 1536 3.3 20:33:37 10° N 20:37:29 43° ENE 20:40:06 18° SE
ERBS 2.7 20:34:52 10° NW 20:38:07 52° NE 20:40:21 18° ESE
OAO 3 Rocket 4.5 20:35:20 10° SW 20:38:54 22° S 20:40:54 17° SSE
USA 267 4.4 20:33:51 10° SSE 20:39:43 34° SW 20:45:36 10° WNW
CZ-2C R/B 2.9 20:40:50 10° SSW 20:43:04 15° S 20:43:05 15° S
SPOT 5 3.9 20:39:51 16° SE 20:43:29 36° ENE 20:48:21 10° N
Cosmos 1812 4.1 20:41:15 10° SSW 20:44:53 40° WNW 20:48:33 10° N
OBJECT-B 3.8 20:43:26 10° WSW 20:44:57 13° W 20:46:27 10° WNW
Nadezhda 1 Rocket 4.1 20:39:15 10° S 20:45:23 59° E 20:51:28 10° NNE
Cosmos 2154 Rocket 4.1 20:39:23 10° N 20:45:40 63° ENE 20:50:44 16° SSE
Cosmos 2074 Rocket 4.1 20:41:52 10° N 20:48:12 85° W 20:54:25 10° S
Cosmos 1833 Rocket 4.4 20:45:26 10° NW 20:50:09 28° WSW 20:54:51 10° SSW
Cosmos 2184 Rocket 4.0 20:45:32 10° N 20:51:45 83° W 20:57:40 11° S
ERS-1 Rocket 3.6 20:49:06 19° SE 20:52:20 42° ENE 20:57:03 10° N
CZ-4C R/B 4.5 20:47:56 10° WNW 20:54:16 29° WSW 21:01:13 10° SSW
ISS -2.7 20:52:50 10° W 20:56:06 47° NNW 20:59:23 10° NE
Cosmos 2112 Rocket 4.0 20:53:22 10° NNW 20:58:46 85° ENE 21:02:28 21° SSE
Cosmos 967 Rocket 4.4 20:54:12 10° SSW 21:00:27 82° ESE 21:06:46 10° NE
Cosmos 1869 Rocket 3.5 20:56:43 10° N 21:01:06 90° SE 21:04:04 20° S
Spot 2 Rocket 3.4 21:00:39 20° SSE 21:04:09 78° ENE 21:09:13 10° NNW
Cosmos 1937 Rocket 3.5 20:59:12 10° S 21:04:15 63° ESE 21:09:24 10° NNE
JB-3 4.3 21:02:09 10° NNE 21:05:57 58° E 21:08:00 25° S
Cosmos 44 3.8 21:01:28 10° NW 21:06:49 62° WSW 21:10:08 22° SSE
Cosmos 2228 Rocket 3.4 21:02:34 10° SSW 21:06:59 70° W 21:11:30 10° N
Cosmos 1743 3.0 21:05:40 10° N 21:09:28 52° E 21:11:02 31° SE
SPOT 1/Viking Rocket 3.7 21:05:52 17° S 21:09:56 71° WSW 21:15:08 10° NNW
RESURS DK-1 4.0 21:08:27 10° N 21:11:54 24° NE 21:13:58 17° E
Resurs 01 Rocket 3.1 21:08:45 10° SSW 21:12:43 32° W 21:16:42 10° NNW
Cosmos 1610 Rocket 4.5 21:06:46 10° N 21:12:55 86° W 21:17:36 18° S
Cosmos 2084 Rocket 3.7 21:10:00 10° NW 21:14:14 61° SW 21:16:25 28° SSE
Cosmos 1707 Rocket 3.6 21:14:44 25° S 21:17:10 65° E 21:21:34 10° NNE
Meteor 1-27 Rocket 4.0 21:11:42 10° SSW 21:17:34 75° WNW 21:23:33 10° N
CARTOSAT-1 3.5 21:15:34 26° SSE 21:17:56 87° W 21:22:16 10° NNW
Cosmos 858 Rocket 4.4 21:18:01 10° SSW 21:23:14 86° ESE 21:28:31 10° NNE
Cosmos 1680 Rocket 4.1 21:18:20 10° NNW 21:23:30 52° WSW 21:26:59 20° S
Cosmos 1867 3.8 21:23:54 20° S 21:27:20 48° ESE 21:32:35 10° NE
SJ 16-02 4.3 21:24:36 10° W 21:27:41 18° NW 21:30:47 10° NNW
DNEPR-1 R/B 4.4 21:22:34 10° SW 21:28:31 69° NW 21:33:27 10° NNE
Tianhe-1 2.0 21:25:47 10° WSW 21:28:07 33° SW 21:28:07 33° SW
Cosmos 2181 Rocket 4.3 21:25:49 27° SSE 21:28:50 47° E 21:34:39 10° NNE
Meteor 1-19 Rocket 4.4 21:28:38 30° SSE 21:31:00 49° E 21:36:13 10° NNE
Cosmos 2297 4.2 21:27:24 10° SW 21:33:02 62° WNW 21:38:41 10° NNE
BREEZE-M R/B 2.7 21:33:26 10° WNW 21:35:47 45° NNE 21:36:27 35° ENE
SL-27 R/B 4.3 21:35:07 10° NNE 21:37:32 18° ENE 21:38:02 18° ENE
BREEZE M DEB (TANK) 2.2 21:34:54 10° WNW 21:37:16 37° WSW 21:37:16 37° WSW
Cosmos 372 Rocket 3.8 21:36:41 25° S 21:39:38 72° ESE 21:44:43 10° NNE
Terra 1.8 21:38:38 36° SSE 21:40:35 79° ENE 21:45:23 10° N
Cosmos 1515 3.5 21:39:36 42° S 21:40:48 89° ESE 21:44:37 10° N
Cosmos 1544 4.1 21:38:45 10° NNW 21:42:11 41° W 21:43:38 27° SW
Cosmos 1943 Rocket 2.5 21:37:40 10° SW 21:43:16 68° WNW 21:48:51 10° NNE
Cosmos 1733 Rocket 2.9 21:39:27 10° N 21:43:48 84° E 21:45:11 43° SSE
Cosmos 2082 Rocket 4.2 21:41:28 10° NW 21:45:23 20° W 21:49:17 10° SW
Gbstr 26 Del rocket 4.3 21:37:59 10° WNW 21:45:27 60° SW 21:48:29 32° SSE
Cosmos 1340 Rocket 3.8 21:42:34 10° NNW 21:46:24 41° W 21:48:11 26° SSW
Cosmos 1656 Rocket 3.9 21:46:53 36° SSE 21:48:33 47° ESE 21:53:51 10° NE
Okean 1 3.2 21:49:15 44° SSW 21:50:28 86° W 21:54:28 10° N
ATLAS 2AS CENTAUR R/B 3.7 21:44:58 10° NW 21:51:29 37° WSW 21:55:13 21° SSW
Cosmos 2341 Rocket 4.1 21:45:19 10° N 21:51:44 82° W 21:55:10 30° S
Cosmos 2218 Rocket 4.0 21:48:48 10° N 21:55:09 72° E 21:58:01 35° SSE
ARIANE 5 R/B 4.0 21:56:25 21° SW 21:58:31 31° W 22:02:25 10° NNW
SL-8 Rocket 4.0 21:57:28 10° N 22:03:49 84° W 22:06:45 34° S
Cosmos 2298 Rocket 4.2 22:02:56 43° SSE 22:04:13 54° ESE 22:09:23 10° NNE
H-2A R/B 3.5 22:00:29 10° N 22:04:39 74° WNW 22:05:59 41° SSW
Cosmos 1908 Rocket 3.8 22:01:24 10° N 22:05:48 54° ENE 22:06:34 47° ESE
Cosmos 2369 Rocket 2.3 22:08:17 18° SW 22:12:29 74° WNW 22:18:11 10° NNE
ATLAS CENTAUR R/B 1.0 22:12:29 73° SW 22:12:48 85° NW 22:16:37 10° NE
Okean 1-7 3.1 22:21:21 55° ESE 22:21:28 55° E 22:25:41 10° NNE
Cosmos 1238 Rocket 4.1 22:16:10 10° NNW 22:21:30 48° W 22:23:11 34° SW
SPOT 5 4.3 22:19:04 23° SW 22:21:31 34° W 22:26:22 10° NNW
Spot 4 4.3 22:24:53 41° ESE 22:25:55 49° ENE 22:30:36 10° N
Cosmos 2344 4.5 22:17:52 10° NW 22:27:00 71° NE 22:35:50 22° SE
Cosmos 2242 Rocket 3.5 22:27:54 67° SE 22:28:20 73° E 22:32:50 10° NNE
Cosmos 2150 Rocket 3.9 22:28:56 48° SSW 22:30:29 84° ESE 22:35:47 10° NNE
Cosmos 1125 Rocket 3.4 22:31:07 55° SSE 22:32:07 70° ESE 22:37:19 10° NNE
Cosmos 468 4.4 22:26:53 10° NNW 22:32:10 80° WSW 22:33:19 55° S
Cosmos 1975 3.3 22:29:18 10° NNW 22:33:10 49° W 22:33:30 47° WSW
ISS -1.6 22:30:27 10° WNW 22:33:25 28° N 22:36:23 10° ENE
Cosmos 1703 Rocket 3.4 22:34:26 73° SSE 22:34:47 81° E 22:39:14 10° N
Cosmos 1378 4.0 22:38:55 41° ENE 22:38:55 41° ENE 22:41:47 10° NNE
Cosmos 1782 Rocket 3.5 22:34:13 10° N 22:38:38 66° E 22:38:55 64° ESE
SL-08 R/B 4.5 22:36:07 10° N 22:42:25 88° W 22:44:29 46° S
Cosmos 1607 4.5 22:39:01 10° SW 22:45:23 61° NW 22:51:50 10° NNE
Cosmos 724 4.3 22:46:12 43° SSW 22:48:23 79° ESE 22:54:40 10° NE
Lacrosse 5 1.7 22:48:54 66° S 22:49:24 72° SE 22:54:30 10° NE
RESURS DK-1 3.3 22:46:10 10° NW 22:49:50 37° WSW 22:49:50 37° WSW
Cosmos 1934 Rocket 4.4 22:47:44 10° N 22:53:40 49° ENE 22:55:20 39° ESE
Cosmos 1805 4.2 22:52:21 10° N 22:55:42 38° ENE 22:55:42 38° ENE
Cosmos 1066 Rocket 4.3 22:55:52 53° SE 22:56:50 61° E 23:02:20 10° NNE
Cosmos 1356 Rocket 3.4 22:57:33 10° N 23:01:50 88° NNW 23:01:50 88° NNW
Cosmos 2227 Rocket 4.2 22:58:59 10° N 23:03:17 22° NE 23:07:26 10° E
Cosmos 2297 Rocket 3.8 23:00:31 10° N 23:05:19 27° NE 23:08:40 16° E
Cosmos 1821 Rocket 4.0 22:59:40 10° N 23:06:05 78° W 23:07:52 50° S
Okean 3 3.4 23:06:38 83° N 23:06:38 83° N 23:10:43 10° N
Meteor 1-12 Rocket 4.2 23:05:14 10° NNW 23:11:03 76° W 23:12:13 57° SSW
SL-27 R/B 4.3 23:09:41 10° NW 23:11:32 23° WNW 23:11:32 23° WNW
NOSS 2-1 (E) 4.2 23:10:41 10° NW 23:15:49 84° SW 23:17:30 52° SSE
Cosmos 44 Rocket 3.6 23:11:47 10° NW 23:16:51 53° WSW 23:16:57 52° WSW
Cosmos 1766 4.0 23:13:49 10° N 23:17:13 45° NE 23:17:13 45° NE
Meteor 1-15 Rocket 4.2 23:12:49 10° N 23:18:37 79° E 23:19:48 58° SSE
Terra 4.2 23:17:31 11° WSW 23:18:55 12° W 23:20:56 10° WNW
Cosmos 2221 Rocket 3.7 23:23:40 64° E 23:23:40 64° E 23:28:05 10° NNE
COSMOS 2455 3.2 23:20:24 10° NNW 23:26:21 58° NE 23:28:40 36° ESE
ALOS 2 2.6 23:29:20 71° W 23:29:20 71° W 23:33:36 10° NNW
USA 215 4.4 23:23:48 10° E 23:29:50 41° NNE 23:35:51 10° NW
Nimbus 7 Rocket 4.4 23:25:30 10° NNE 23:31:25 72° ESE 23:32:33 57° SSE
COBE Rocket 3.8 23:31:00 71° S 23:31:34 83° WSW 23:36:47 10° NNW
Cosmos 1535 Rocket 4.4 23:28:08 10° N 23:34:28 89° E 23:36:02 55° S
Cosmos 1300 Rocket 3.6 23:30:08 10° NNW 23:34:19 73° WNW 23:34:19 73° WNW
Cosmos 1269 Rocket 3.9 23:29:20 10° NNW 23:34:38 76° WSW 23:35:07 70° SSW
USA 81 4.3 23:30:29 10° N 23:35:43 57° E 23:36:30 52° ESE
Cosmos 1470 4.3 23:33:13 10° NNE 23:36:35 28° ENE 23:36:35 28° ENE
Cosmos 1842 4.0 23:46:42 47° NE 23:46:42 47° NE 23:49:49 10° NNE
Meteor 1-23 Rocket 4.3 23:46:20 55° SW 23:47:35 73° WNW 23:53:26 10° N
Cosmos 1733 4.0 23:43:58 10° NNW 23:46:57 47° NW 23:46:57 47° NW
Thor Agena Rocket 3.4 23:46:48 10° NNE 23:52:07 81° ESE 23:52:46 68° S
ATLAS CENTAUR R/B 4.1 23:50:23 10° WNW 23:52:19 14° NNW 23:54:18 10° N
